Year,Month,Day,Hour,Minute,Value (Times are PST for temperature in C)
2018,06,18,00,00,23.30
2018,06,18,00,01,23.30
2018,06,18,00,02,23.40
2018,06,18,00,03,23.40
2018,06,18,00,04,23.40
2018,06,18,00,05,23.50
2018,06,18,00,06,23.60
2018,06,18,00,07,23.60
2018,06,18,00,08,23.60
2018,06,18,00,09,23.60
2018,06,18,00,10,23.60
2018,06,18,00,11,23.60
2018,06,18,00,12,23.50
2018,06,18,00,13,23.40
2018,06,18,00,14,23.40
2018,06,18,00,15,23.40
2018,06,18,00,16,23.30
2018,06,18,00,17,23.30
2018,06,18,00,18,23.30
2018,06,18,00,19,23.30
2018,06,18,00,20,23.30
2018,06,18,00,21,23.30
2018,06,18,00,22,23.30
2018,06,18,00,23,23.30
2018,06,18,00,24,23.30
2018,06,18,00,25,23.30
2018,06,18,00,26,23.30
2018,06,18,00,27,23.30
2018,06,18,00,28,23.30
2018,06,18,00,29,23.30
2018,06,18,00,30,23.30
2018,06,18,00,31,23.20
2018,06,18,00,32,23.10
2018,06,18,00,33,23.00
2018,06,18,00,34,22.90
2018,06,18,00,35,22.90
2018,06,18,00,36,22.90
2018,06,18,00,37,22.80
2018,06,18,00,38,22.80
2018,06,18,00,39,22.80
2018,06,18,00,40,22.90
2018,06,18,00,41,22.80
2018,06,18,00,42,22.70
2018,06,18,00,43,22.70
2018,06,18,00,44,22.60
2018,06,18,00,45,22.60
2018,06,18,00,46,22.60
2018,06,18,00,47,22.60
2018,06,18,00,48,22.60
2018,06,18,00,49,22.70
2018,06,18,00,50,22.70
2018,06,18,00,51,22.80
2018,06,18,00,52,22.80
2018,06,18,00,53,22.80
2018,06,18,00,54,22.80
2018,06,18,00,55,22.80
2018,06,18,00,56,22.80
2018,06,18,00,57,22.80
2018,06,18,00,58,22.80
2018,06,18,00,59,22.80
2018,06,18,01,00,22.80
2018,06,18,01,01,22.70
2018,06,18,01,02,22.70
2018,06,18,01,03,22.60
2018,06,18,01,04,22.60
2018,06,18,01,05,22.60
2018,06,18,01,06,22.60
2018,06,18,01,07,22.60
2018,06,18,01,08,22.50
2018,06,18,01,09,22.50
2018,06,18,01,10,22.50
2018,06,18,01,11,22.50
2018,06,18,01,12,22.40
2018,06,18,01,13,22.40
2018,06,18,01,14,22.40
2018,06,18,01,15,22.30
2018,06,18,01,16,22.30
2018,06,18,01,17,22.30
2018,06,18,01,18,22.20
2018,06,18,01,19,22.10
2018,06,18,01,20,22.10
2018,06,18,01,21,22.00
2018,06,18,01,22,22.00
2018,06,18,01,23,21.90
2018,06,18,01,24,21.80
2018,06,18,01,25,21.60
2018,06,18,01,26,21.60
2018,06,18,01,27,21.40
2018,06,18,01,28,21.20
2018,06,18,01,29,21.10
2018,06,18,01,30,20.90
2018,06,18,01,31,20.80
2018,06,18,01,32,20.70
2018,06,18,01,33,20.60
2018,06,18,01,34,20.50
2018,06,18,01,35,20.40
2018,06,18,01,36,20.30
2018,06,18,01,37,20.20
2018,06,18,01,38,20.20
2018,06,18,01,39,20.20
2018,06,18,01,40,20.10
2018,06,18,01,41,20.10
2018,06,18,01,42,20.10
2018,06,18,01,43,20.00
2018,06,18,01,44,19.90
2018,06,18,01,45,19.90
2018,06,18,01,46,19.90
2018,06,18,01,47,19.90
2018,06,18,01,48,19.90
2018,06,18,01,49,19.90
2018,06,18,01,50,20.00
2018,06,18,01,51,20.10
2018,06,18,01,52,20.10
2018,06,18,01,53,20.20
2018,06,18,01,54,20.20
2018,06,18,01,55,20.20
2018,06,18,01,56,20.30
2018,06,18,01,57,20.40
2018,06,18,01,58,20.40
2018,06,18,01,59,20.40
2018,06,18,02,00,20.40
2018,06,18,02,01,20.50
2018,06,18,02,02,20.40
2018,06,18,02,03,20.40
2018,06,18,02,04,20.30
2018,06,18,02,05,20.30
2018,06,18,02,06,20.20
2018,06,18,02,07,20.20
2018,06,18,02,08,20.20
2018,06,18,02,09,20.10
2018,06,18,02,10,20.10
2018,06,18,02,11,20.00
2018,06,18,02,12,19.90
2018,06,18,02,13,19.90
2018,06,18,02,14,19.90
2018,06,18,02,15,19.90
2018,06,18,02,16,19.90
2018,06,18,02,17,19.90
2018,06,18,02,18,20.00
2018,06,18,02,19,20.10
2018,06,18,02,20,20.10
2018,06,18,02,21,20.20
2018,06,18,02,22,20.20
2018,06,18,02,23,20.30
2018,06,18,02,24,20.40
2018,06,18,02,25,20.40
2018,06,18,02,26,20.50
2018,06,18,02,27,20.50
2018,06,18,02,28,20.50
2018,06,18,02,29,20.50
2018,06,18,02,30,20.50
2018,06,18,02,31,20.60
2018,06,18,02,32,20.60
2018,06,18,02,33,20.60
2018,06,18,02,34,20.60
2018,06,18,02,35,20.60
2018,06,18,02,36,20.60
2018,06,18,02,37,20.60
2018,06,18,02,38,20.50
2018,06,18,02,39,20.50
2018,06,18,02,40,20.50
2018,06,18,02,41,20.50
2018,06,18,02,42,20.50
2018,06,18,02,43,20.50
2018,06,18,02,44,20.60
2018,06,18,02,45,20.60
2018,06,18,02,46,20.70
2018,06,18,02,47,20.70
2018,06,18,02,48,20.80
2018,06,18,02,49,20.90
2018,06,18,02,50,21.00
2018,06,18,02,51,21.00
2018,06,18,02,52,21.10
2018,06,18,02,53,21.10
2018,06,18,02,54,21.20
2018,06,18,02,55,21.20
2018,06,18,02,56,21.30
2018,06,18,02,57,21.30
2018,06,18,02,58,21.40
2018,06,18,02,59,21.40
2018,06,18,03,00,21.50
2018,06,18,03,01,21.60
2018,06,18,03,02,21.60
2018,06,18,03,03,21.60
2018,06,18,03,04,21.60
2018,06,18,03,05,21.70
2018,06,18,03,06,21.70
2018,06,18,03,07,21.70
2018,06,18,03,08,21.70
2018,06,18,03,09,21.70
2018,06,18,03,10,21.70
2018,06,18,03,11,21.60
2018,06,18,03,12,21.60
2018,06,18,03,13,21.60
2018,06,18,03,14,21.60
2018,06,18,03,15,21.60
2018,06,18,03,16,21.50
2018,06,18,03,17,21.40
2018,06,18,03,18,21.30
2018,06,18,03,19,21.30
2018,06,18,03,20,21.30
2018,06,18,03,21,21.30
2018,06,18,03,22,21.30
2018,06,18,03,23,21.30
2018,06,18,03,24,21.30
2018,06,18,03,25,21.30
2018,06,18,03,26,21.30
2018,06,18,03,27,21.30
2018,06,18,03,28,21.30
2018,06,18,03,29,21.30
2018,06,18,03,30,21.30
2018,06,18,03,31,21.30
2018,06,18,03,32,21.30
2018,06,18,03,33,21.40
2018,06,18,03,34,21.40
2018,06,18,03,35,21.40
2018,06,18,03,36,21.40
2018,06,18,03,37,21.50
2018,06,18,03,38,21.40
2018,06,18,03,39,21.20
2018,06,18,03,40,20.80
2018,06,18,03,41,20.50
2018,06,18,03,42,20.30
2018,06,18,03,43,20.00
2018,06,18,03,44,19.80
2018,06,18,03,45,19.50
2018,06,18,03,46,19.40
2018,06,18,03,47,19.20
2018,06,18,03,48,19.00
2018,06,18,03,49,18.80
2018,06,18,03,50,18.60
2018,06,18,03,51,18.40
2018,06,18,03,52,18.30
2018,06,18,03,53,18.10
2018,06,18,03,54,18.00
2018,06,18,03,55,17.90
2018,06,18,03,56,17.80
2018,06,18,03,57,17.60
2018,06,18,03,58,17.50
2018,06,18,03,59,17.40
2018,06,18,04,00,17.30
2018,06,18,04,01,17.20
2018,06,18,04,02,17.10
2018,06,18,04,03,17.00
2018,06,18,04,04,16.90
2018,06,18,04,05,16.80
2018,06,18,04,06,16.80
2018,06,18,04,07,16.70
2018,06,18,04,08,16.70
2018,06,18,04,09,16.70
2018,06,18,04,10,16.70
2018,06,18,04,11,16.70
2018,06,18,04,12,16.70
2018,06,18,04,13,16.80
2018,06,18,04,14,16.80
2018,06,18,04,15,16.90
2018,06,18,04,16,16.90
2018,06,18,04,17,17.00
2018,06,18,04,18,17.10
2018,06,18,04,19,17.20
2018,06,18,04,20,17.40
2018,06,18,04,21,17.50
2018,06,18,04,22,17.70
2018,06,18,04,23,17.80
2018,06,18,04,24,18.00
2018,06,18,04,25,18.10
2018,06,18,04,26,18.20
2018,06,18,04,27,18.30
2018,06,18,04,28,18.40
2018,06,18,04,29,18.50
2018,06,18,04,30,18.50
2018,06,18,04,31,18.60
2018,06,18,04,32,18.60
2018,06,18,04,33,18.70
2018,06,18,04,34,18.80
2018,06,18,04,35,18.80
2018,06,18,04,36,18.90
2018,06,18,04,37,18.90
2018,06,18,04,38,19.00
2018,06,18,04,39,19.10
2018,06,18,04,40,19.10
2018,06,18,04,41,19.10
2018,06,18,04,42,19.10
2018,06,18,04,43,19.10
2018,06,18,04,44,19.10
2018,06,18,04,45,19.10
2018,06,18,04,46,19.10
2018,06,18,04,47,19.10
2018,06,18,04,48,19.10
2018,06,18,04,49,19.00
2018,06,18,04,50,18.90
2018,06,18,04,51,18.90
2018,06,18,04,52,18.90
2018,06,18,04,53,18.90
2018,06,18,04,54,18.70
2018,06,18,04,55,18.60
2018,06,18,04,56,18.60
2018,06,18,04,57,18.50
2018,06,18,04,58,18.30
2018,06,18,04,59,18.20
2018,06,18,05,00,18.20
2018,06,18,05,01,18.10
2018,06,18,05,02,17.90
2018,06,18,05,03,17.90
2018,06,18,05,04,17.90
2018,06,18,05,05,17.90
2018,06,18,05,06,17.80
2018,06,18,05,07,17.80
2018,06,18,05,08,17.80
2018,06,18,05,09,17.80
2018,06,18,05,10,17.70
2018,06,18,05,11,17.70
2018,06,18,05,12,17.70
2018,06,18,05,13,17.60
2018,06,18,05,14,17.50
2018,06,18,05,15,17.50
2018,06,18,05,16,17.50
2018,06,18,05,17,17.40
2018,06,18,05,18,17.40
2018,06,18,05,19,17.40
2018,06,18,05,20,17.40
2018,06,18,05,21,17.40
2018,06,18,05,22,17.40
2018,06,18,05,23,17.40
2018,06,18,05,24,17.40
2018,06,18,05,25,17.40
2018,06,18,05,26,17.40
2018,06,18,05,27,17.40
2018,06,18,05,28,17.50
2018,06,18,05,29,17.50
2018,06,18,05,30,17.50
2018,06,18,05,31,17.60
2018,06,18,05,32,17.60
2018,06,18,05,33,17.70
2018,06,18,05,34,17.70
2018,06,18,05,35,17.80
2018,06,18,05,36,17.90
2018,06,18,05,37,17.90
2018,06,18,05,38,17.90
2018,06,18,05,39,18.00
2018,06,18,05,40,18.10
2018,06,18,05,41,18.10
2018,06,18,05,42,18.00
2018,06,18,05,43,17.90
2018,06,18,05,44,17.90
2018,06,18,05,45,17.90
2018,06,18,05,46,17.90
2018,06,18,05,47,17.80
2018,06,18,05,48,17.80
2018,06,18,05,49,17.80
2018,06,18,05,50,17.70
2018,06,18,05,51,17.70
2018,06,18,05,52,17.70
2018,06,18,05,53,17.70
2018,06,18,05,54,17.60
2018,06,18,05,55,17.70
2018,06,18,05,56,17.70
2018,06,18,05,57,17.70
2018,06,18,05,58,17.70
2018,06,18,05,59,17.80
2018,06,18,06,00,17.80
2018,06,18,06,01,17.80
2018,06,18,06,02,17.90
2018,06,18,06,03,17.90
2018,06,18,06,04,18.00
2018,06,18,06,05,18.10
2018,06,18,06,06,18.20
2018,06,18,06,07,18.30
2018,06,18,06,08,18.40
2018,06,18,06,09,18.50
2018,06,18,06,10,18.60
2018,06,18,06,11,18.70
2018,06,18,06,12,18.90
2018,06,18,06,13,19.00
2018,06,18,06,14,19.10
2018,06,18,06,15,19.20
2018,06,18,06,16,19.10
2018,06,18,06,17,19.00
2018,06,18,06,18,18.90
2018,06,18,06,19,18.70
2018,06,18,06,20,18.60
2018,06,18,06,21,18.50
2018,06,18,06,22,18.50
2018,06,18,06,23,18.40
2018,06,18,06,24,18.40
2018,06,18,06,25,18.40
2018,06,18,06,26,18.40
2018,06,18,06,27,18.40
2018,06,18,06,28,18.40
2018,06,18,06,29,18.40
2018,06,18,06,30,18.50
2018,06,18,06,31,18.50
2018,06,18,06,32,18.60
2018,06,18,06,33,18.70
2018,06,18,06,34,18.70
2018,06,18,06,35,18.90
2018,06,18,06,36,18.90
2018,06,18,06,37,19.00
2018,06,18,06,38,19.10
2018,06,18,06,39,19.20
2018,06,18,06,40,19.30
2018,06,18,06,41,19.40
2018,06,18,06,42,19.50
2018,06,18,06,43,19.60
2018,06,18,06,44,19.70
2018,06,18,06,45,19.80
2018,06,18,06,46,19.80
2018,06,18,06,47,19.90
2018,06,18,06,48,19.90
2018,06,18,06,49,20.00
2018,06,18,06,50,20.10
2018,06,18,06,51,20.10
2018,06,18,06,52,20.10
2018,06,18,06,53,20.10
2018,06,18,06,54,20.10
2018,06,18,06,55,20.20
2018,06,18,06,56,20.20
2018,06,18,06,57,20.20
2018,06,18,06,58,20.20
2018,06,18,06,59,20.20
2018,06,18,07,00,20.20
2018,06,18,07,01,20.10
2018,06,18,07,02,20.00
2018,06,18,07,03,19.90
2018,06,18,07,04,19.90
2018,06,18,07,05,19.90
2018,06,18,07,06,20.00
2018,06,18,07,07,20.10
2018,06,18,07,08,20.10
2018,06,18,07,09,20.20
2018,06,18,07,10,20.20
2018,06,18,07,11,20.20
2018,06,18,07,12,20.20
2018,06,18,07,13,20.20
2018,06,18,07,14,20.20
2018,06,18,07,15,20.20
2018,06,18,07,16,20.20
2018,06,18,07,17,20.10
2018,06,18,07,18,20.10
2018,06,18,07,19,20.10
2018,06,18,07,20,20.10
2018,06,18,07,21,20.10
2018,06,18,07,22,20.20
2018,06,18,07,23,20.20
2018,06,18,07,24,20.20
2018,06,18,07,25,20.30
2018,06,18,07,26,20.40
2018,06,18,07,27,20.50
2018,06,18,07,28,20.70
2018,06,18,07,29,20.80
2018,06,18,07,30,20.80
2018,06,18,07,31,20.80
2018,06,18,07,32,20.80
2018,06,18,07,33,20.80
2018,06,18,07,34,20.80
2018,06,18,07,35,20.80
2018,06,18,07,36,20.80
2018,06,18,07,37,20.80
2018,06,18,07,38,20.80
2018,06,18,07,39,20.80
2018,06,18,07,40,20.90
2018,06,18,07,41,20.90
2018,06,18,07,42,20.90
2018,06,18,07,43,20.90
2018,06,18,07,44,21.00
2018,06,18,07,45,21.00
2018,06,18,07,46,21.00
2018,06,18,07,47,21.10
2018,06,18,07,48,21.20
2018,06,18,07,49,21.30
2018,06,18,07,50,21.30
2018,06,18,07,51,21.50
2018,06,18,07,52,21.60
2018,06,18,07,53,21.60
2018,06,18,07,54,21.60
2018,06,18,07,55,21.70
2018,06,18,07,56,21.70
2018,06,18,07,57,21.70
2018,06,18,07,58,21.70
2018,06,18,07,59,21.70
2018,06,18,08,00,21.70
2018,06,18,08,01,21.70
2018,06,18,08,02,21.70
2018,06,18,08,03,21.70
2018,06,18,08,04,21.70
2018,06,18,08,05,21.80
2018,06,18,08,06,21.90
2018,06,18,08,07,22.00
2018,06,18,08,08,22.10
2018,06,18,08,09,22.10
2018,06,18,08,10,22.10
2018,06,18,08,11,22.20
2018,06,18,08,12,22.10
2018,06,18,08,13,22.10
2018,06,18,08,14,22.10
2018,06,18,08,15,22.20
2018,06,18,08,16,22.20
2018,06,18,08,17,22.30
2018,06,18,08,18,22.30
2018,06,18,08,19,22.40
2018,06,18,08,20,22.40
2018,06,18,08,21,22.40
2018,06,18,08,22,22.40
2018,06,18,08,23,22.50
2018,06,18,08,24,22.50
2018,06,18,08,25,22.50
2018,06,18,08,26,22.50
2018,06,18,08,27,22.60
2018,06,18,08,28,22.60
2018,06,18,08,29,22.70
2018,06,18,08,30,22.80
2018,06,18,08,31,22.80
2018,06,18,08,32,22.70
2018,06,18,08,33,22.60
2018,06,18,08,34,22.50
2018,06,18,08,35,22.50
2018,06,18,08,36,22.50
2018,06,18,08,37,22.40
2018,06,18,08,38,22.40
2018,06,18,08,39,22.30
2018,06,18,08,40,22.30
2018,06,18,08,41,22.30
2018,06,18,08,42,22.30
2018,06,18,08,43,22.20
2018,06,18,08,44,22.20
2018,06,18,08,45,22.10
2018,06,18,08,46,22.10
2018,06,18,08,47,22.10
2018,06,18,08,48,22.10
2018,06,18,08,49,22.10
2018,06,18,08,50,22.10
2018,06,18,08,51,22.10
2018,06,18,08,52,22.10
2018,06,18,08,53,22.10
2018,06,18,08,54,22.10
2018,06,18,08,55,22.10
2018,06,18,08,56,22.20
2018,06,18,08,57,22.20
2018,06,18,08,58,22.20
2018,06,18,08,59,22.20
2018,06,18,09,00,22.30
2018,06,18,09,01,22.40
2018,06,18,09,02,22.40
2018,06,18,09,03,22.40
2018,06,18,09,04,22.50
2018,06,18,09,05,22.60
2018,06,18,09,06,22.60
2018,06,18,09,07,22.70
2018,06,18,09,08,22.80
2018,06,18,09,09,22.90
2018,06,18,09,10,22.90
2018,06,18,09,11,22.90
2018,06,18,09,12,22.90
2018,06,18,09,13,22.90
2018,06,18,09,14,22.90
2018,06,18,09,15,22.90
2018,06,18,09,16,22.90
2018,06,18,09,17,22.90
2018,06,18,09,18,22.90
2018,06,18,09,19,23.10
2018,06,18,09,20,23.10
2018,06,18,09,21,23.10
2018,06,18,09,22,23.10
2018,06,18,09,23,23.10
2018,06,18,09,24,23.10
2018,06,18,09,25,22.90
2018,06,18,09,26,22.90
2018,06,18,09,27,22.80
2018,06,18,09,28,22.70
2018,06,18,09,29,22.70
2018,06,18,09,30,22.60
2018,06,18,09,31,22.60
2018,06,18,09,32,22.50
2018,06,18,09,33,22.50
2018,06,18,09,34,22.50
2018,06,18,09,35,22.50
2018,06,18,09,36,22.50
2018,06,18,09,37,22.30
2018,06,18,09,38,22.30
2018,06,18,09,39,22.20
2018,06,18,09,40,22.20
2018,06,18,09,41,22.20
2018,06,18,09,42,22.20
2018,06,18,09,43,22.20
2018,06,18,09,44,22.20
2018,06,18,09,45,22.30
2018,06,18,09,46,22.40
2018,06,18,09,47,22.50
2018,06,18,09,48,22.60
2018,06,18,09,49,22.60
2018,06,18,09,50,22.70
2018,06,18,09,51,22.70
2018,06,18,09,52,22.70
2018,06,18,09,53,22.70
2018,06,18,09,54,22.70
2018,06,18,09,55,22.70
2018,06,18,09,56,22.70
2018,06,18,09,57,22.70
2018,06,18,09,58,22.60
2018,06,18,09,59,22.50
2018,06,18,10,00,22.50
2018,06,18,10,01,22.50
2018,06,18,10,02,22.50
2018,06,18,10,03,22.60
2018,06,18,10,04,22.70
2018,06,18,10,05,22.80
2018,06,18,10,06,22.90
2018,06,18,10,07,22.90
2018,06,18,10,08,22.90
2018,06,18,10,09,22.90
2018,06,18,10,10,22.90
2018,06,18,10,11,23.00
2018,06,18,10,12,23.10
2018,06,18,10,13,23.10
2018,06,18,10,14,23.20
2018,06,18,10,15,23.20
2018,06,18,10,16,23.30
2018,06,18,10,17,23.20
2018,06,18,10,18,23.10
2018,06,18,10,19,22.90
2018,06,18,10,20,22.90
2018,06,18,10,21,22.70
2018,06,18,10,22,22.70
2018,06,18,10,23,22.60
2018,06,18,10,24,22.60
2018,06,18,10,25,22.50
2018,06,18,10,26,22.50
2018,06,18,10,27,22.50
2018,06,18,10,28,22.50
2018,06,18,10,29,22.50
2018,06,18,10,30,22.60
2018,06,18,10,31,22.70
2018,06,18,10,32,22.80
2018,06,18,10,33,22.90
2018,06,18,10,34,22.90
2018,06,18,10,35,22.90
2018,06,18,10,36,22.90
2018,06,18,10,37,22.80
2018,06,18,10,38,22.80
2018,06,18,10,39,22.70
2018,06,18,10,40,22.70
2018,06,18,10,41,22.70
2018,06,18,10,42,22.80
2018,06,18,10,43,22.80
2018,06,18,10,44,22.80
2018,06,18,10,45,22.80
2018,06,18,10,46,22.80
2018,06,18,10,47,22.80
2018,06,18,10,48,22.80
2018,06,18,10,49,22.80
2018,06,18,10,50,22.70
2018,06,18,10,51,22.70
2018,06,18,10,52,22.60
2018,06,18,10,53,22.60
2018,06,18,10,54,22.50
2018,06,18,10,55,22.50
2018,06,18,10,56,22.60
2018,06,18,10,57,22.70
2018,06,18,10,58,22.70
2018,06,18,10,59,22.60
2018,06,18,11,00,22.60
2018,06,18,11,01,22.50
2018,06,18,11,02,22.50
2018,06,18,11,03,22.50
2018,06,18,11,04,22.50
2018,06,18,11,05,22.50
2018,06,18,11,06,22.60
2018,06,18,11,07,22.60
2018,06,18,11,08,22.70
2018,06,18,11,09,22.70
2018,06,18,11,10,22.70
2018,06,18,11,11,22.80
2018,06,18,11,12,22.80
2018,06,18,11,13,22.70
2018,06,18,11,14,22.70
2018,06,18,11,15,22.80
2018,06,18,11,16,22.80
2018,06,18,11,17,22.90
2018,06,18,11,18,22.90
2018,06,18,11,19,22.90
2018,06,18,11,20,22.90
2018,06,18,11,21,23.00
2018,06,18,11,22,23.10
2018,06,18,11,23,23.10
2018,06,18,11,24,23.20
2018,06,18,11,25,23.20
2018,06,18,11,26,23.30
2018,06,18,11,27,23.30
2018,06,18,11,28,23.20
2018,06,18,11,29,23.10
2018,06,18,11,30,23.00
2018,06,18,11,31,22.90
2018,06,18,11,32,22.90
2018,06,18,11,33,22.90
2018,06,18,11,34,22.90
2018,06,18,11,35,22.90
2018,06,18,11,36,22.90
2018,06,18,11,37,22.90
2018,06,18,11,38,22.90
2018,06,18,11,39,22.90
2018,06,18,11,40,22.90
2018,06,18,11,41,22.90
2018,06,18,11,42,22.90
2018,06,18,11,43,22.90
2018,06,18,11,44,22.90
2018,06,18,11,45,22.90
2018,06,18,11,46,22.90
2018,06,18,11,47,22.90
2018,06,18,11,48,22.90
2018,06,18,11,49,22.90
2018,06,18,11,50,22.90
2018,06,18,11,51,23.00
2018,06,18,11,52,23.10
2018,06,18,11,53,23.20
2018,06,18,11,54,23.30
2018,06,18,11,55,23.30
2018,06,18,11,56,23.50
2018,06,18,11,57,23.60
2018,06,18,11,58,23.70
2018,06,18,11,59,23.70
2018,06,18,12,00,23.70
2018,06,18,12,01,23.70
2018,06,18,12,02,23.60
2018,06,18,12,03,23.60
2018,06,18,12,04,23.50
2018,06,18,12,05,23.60
2018,06,18,12,06,23.60
2018,06,18,12,07,23.60
2018,06,18,12,08,23.60
2018,06,18,12,09,23.70
2018,06,18,12,10,23.70
2018,06,18,12,11,23.80
2018,06,18,12,12,24.00
2018,06,18,12,13,24.10
2018,06,18,12,14,24.10
2018,06,18,12,15,24.10
2018,06,18,12,16,24.10
2018,06,18,12,17,24.00
2018,06,18,12,18,23.90
2018,06,18,12,19,23.80
2018,06,18,12,20,23.80
2018,06,18,12,21,23.80
2018,06,18,12,22,23.80
2018,06,18,12,23,23.90
2018,06,18,12,24,23.90
2018,06,18,12,25,23.90
2018,06,18,12,26,23.70
2018,06,18,12,27,23.50
2018,06,18,12,28,23.40
2018,06,18,12,29,23.40
2018,06,18,12,30,23.40
2018,06,18,12,31,23.40
2018,06,18,12,32,23.50
2018,06,18,12,33,23.60
2018,06,18,12,34,23.70
2018,06,18,12,35,23.70
2018,06,18,12,36,23.80
2018,06,18,12,37,23.80
2018,06,18,12,38,23.70
2018,06,18,12,39,23.70
2018,06,18,12,40,23.80
2018,06,18,12,41,23.90
2018,06,18,12,42,23.90
2018,06,18,12,43,23.90
2018,06,18,12,44,23.80
2018,06,18,12,45,23.80
2018,06,18,12,46,23.90
2018,06,18,12,47,23.90
2018,06,18,12,48,24.00
2018,06,18,12,49,24.10
2018,06,18,12,50,24.30
2018,06,18,12,51,24.30
2018,06,18,12,52,24.40
2018,06,18,12,53,24.50
2018,06,18,12,54,24.50
2018,06,18,12,55,24.40
2018,06,18,12,56,24.30
2018,06,18,12,57,24.30
2018,06,18,12,58,24.20
2018,06,18,12,59,24.20
2018,06,18,13,00,24.20
2018,06,18,13,01,24.30
2018,06,18,13,02,24.40
2018,06,18,13,03,24.40
2018,06,18,13,04,24.50
2018,06,18,13,05,24.60
2018,06,18,13,06,24.70
2018,06,18,13,07,24.70
2018,06,18,13,08,24.80
2018,06,18,13,09,24.80
2018,06,18,13,10,24.80
2018,06,18,13,11,24.70
2018,06,18,13,12,24.60
2018,06,18,13,13,24.40
2018,06,18,13,14,24.30
2018,06,18,13,15,24.20
2018,06,18,13,16,24.20
2018,06,18,13,17,24.10
2018,06,18,13,18,24.10
2018,06,18,13,19,24.00
2018,06,18,13,20,23.90
2018,06,18,13,21,23.80
2018,06,18,13,22,23.80
2018,06,18,13,23,23.90
2018,06,18,13,24,23.90
2018,06,18,13,25,24.10
2018,06,18,13,26,24.20
2018,06,18,13,27,24.20
2018,06,18,13,28,24.20
2018,06,18,13,29,24.20
2018,06,18,13,30,24.30
2018,06,18,13,31,24.40
2018,06,18,13,32,24.60
2018,06,18,13,33,24.80
2018,06,18,13,34,24.90
2018,06,18,13,35,25.00
2018,06,18,13,36,25.20
2018,06,18,13,37,25.30
2018,06,18,13,38,25.40
2018,06,18,13,39,25.70
2018,06,18,13,40,25.90
2018,06,18,13,41,26.00
2018,06,18,13,42,26.10
2018,06,18,13,43,26.20
2018,06,18,13,44,26.30
2018,06,18,13,45,26.40
2018,06,18,13,46,26.60
2018,06,18,13,47,26.80
2018,06,18,13,48,26.90
2018,06,18,13,49,27.00
2018,06,18,13,50,27.20
2018,06,18,13,51,27.30
2018,06,18,13,52,27.40
2018,06,18,13,53,27.50
2018,06,18,13,54,27.60
2018,06,18,13,55,27.70
2018,06,18,13,56,27.80
2018,06,18,13,57,27.90
2018,06,18,13,58,27.90
2018,06,18,13,59,27.90
2018,06,18,14,00,28.00
2018,06,18,14,01,28.00
2018,06,18,14,02,28.10
2018,06,18,14,03,28.10
2018,06,18,14,04,28.20
2018,06,18,14,05,28.20
2018,06,18,14,06,28.20
2018,06,18,14,07,28.20
2018,06,18,14,08,28.20
2018,06,18,14,09,28.20
2018,06,18,14,10,28.20
2018,06,18,14,11,28.20
2018,06,18,14,12,28.20
2018,06,18,14,13,28.30
2018,06,18,14,14,28.30
2018,06,18,14,15,28.30
2018,06,18,14,16,28.40
2018,06,18,14,17,28.40
2018,06,18,14,18,28.60
2018,06,18,14,19,28.60
2018,06,18,14,20,28.60
2018,06,18,14,21,28.60
2018,06,18,14,22,28.60
2018,06,18,14,23,28.60
2018,06,18,14,24,28.60
2018,06,18,14,25,28.60
2018,06,18,14,26,28.60
2018,06,18,14,27,28.60
2018,06,18,14,28,28.60
2018,06,18,14,29,28.40
2018,06,18,14,30,28.40
2018,06,18,14,31,28.40
2018,06,18,14,32,28.50
2018,06,18,14,33,28.60
2018,06,18,14,34,28.60
2018,06,18,14,35,28.70
2018,06,18,14,36,28.70
2018,06,18,14,37,28.70
2018,06,18,14,38,28.70
2018,06,18,14,39,28.70
2018,06,18,14,40,28.70
2018,06,18,14,41,28.80
2018,06,18,14,42,28.90
2018,06,18,14,43,28.90
2018,06,18,14,44,28.90
2018,06,18,14,45,29.10
2018,06,18,14,46,29.10
2018,06,18,14,47,29.20
2018,06,18,14,48,29.30
2018,06,18,14,49,29.30
2018,06,18,14,50,29.40
2018,06,18,14,51,29.40
2018,06,18,14,52,29.50
2018,06,18,14,53,29.50
2018,06,18,14,54,29.60
2018,06,18,14,55,29.60
2018,06,18,14,56,29.60
2018,06,18,14,57,29.60
2018,06,18,14,58,29.70
2018,06,18,14,59,29.70
2018,06,18,15,00,29.70
2018,06,18,15,01,29.70
2018,06,18,15,02,29.70
2018,06,18,15,03,29.70
2018,06,18,15,04,29.60
2018,06,18,15,05,29.60
2018,06,18,15,06,29.50
2018,06,18,15,07,29.50
2018,06,18,15,08,29.60
2018,06,18,15,09,29.60
2018,06,18,15,10,29.70
2018,06,18,15,11,29.80
2018,06,18,15,12,29.80
2018,06,18,15,13,29.90
2018,06,18,15,14,29.90
2018,06,18,15,15,29.80
2018,06,18,15,16,29.70
2018,06,18,15,17,29.50
2018,06,18,15,18,29.40
2018,06,18,15,19,29.40
2018,06,18,15,20,29.40
2018,06,18,15,21,29.40
2018,06,18,15,22,29.40
2018,06,18,15,23,29.30
2018,06,18,15,24,29.10
2018,06,18,15,25,28.90
2018,06,18,15,26,28.70
2018,06,18,15,27,28.50
2018,06,18,15,28,28.40
2018,06,18,15,29,28.30
2018,06,18,15,30,28.30
2018,06,18,15,31,28.20
2018,06,18,15,32,28.20
2018,06,18,15,33,28.20
2018,06,18,15,34,28.10
2018,06,18,15,35,28.10
2018,06,18,15,36,28.10
2018,06,18,15,37,28.10
2018,06,18,15,38,28.10
2018,06,18,15,39,28.00
2018,06,18,15,40,27.80
2018,06,18,15,41,27.70
2018,06,18,15,42,27.60
2018,06,18,15,43,27.60
2018,06,18,15,44,27.60
2018,06,18,15,45,27.60
2018,06,18,15,46,27.40
2018,06,18,15,47,27.30
2018,06,18,15,48,27.10
2018,06,18,15,49,27.10
2018,06,18,15,50,27.10
2018,06,18,15,51,27.20
2018,06,18,15,52,27.30
2018,06,18,15,53,27.30
2018,06,18,15,54,27.40
2018,06,18,15,55,27.50
2018,06,18,15,56,27.70
2018,06,18,15,57,27.80
2018,06,18,15,58,27.90
2018,06,18,15,59,28.00
2018,06,18,16,00,28.00
2018,06,18,16,01,28.00
2018,06,18,16,02,28.10
2018,06,18,16,03,28.30
2018,06,18,16,04,28.40
2018,06,18,16,05,28.40
2018,06,18,16,06,28.40
2018,06,18,16,07,28.50
2018,06,18,16,08,28.60
2018,06,18,16,09,28.70
2018,06,18,16,10,28.80
2018,06,18,16,11,28.80
2018,06,18,16,12,28.90
2018,06,18,16,13,28.90
2018,06,18,16,14,28.90
2018,06,18,16,15,28.90
2018,06,18,16,16,29.00
2018,06,18,16,17,29.10
2018,06,18,16,18,29.20
2018,06,18,16,19,29.30
2018,06,18,16,20,29.30
2018,06,18,16,21,29.40
2018,06,18,16,22,29.50
2018,06,18,16,23,29.60
2018,06,18,16,24,29.70
2018,06,18,16,25,29.80
2018,06,18,16,26,29.90
2018,06,18,16,27,29.90
2018,06,18,16,28,29.90
2018,06,18,16,29,29.90
2018,06,18,16,30,30.00
2018,06,18,16,31,30.10
2018,06,18,16,32,30.10
2018,06,18,16,33,30.20
2018,06,18,16,34,30.20
2018,06,18,16,35,30.30
2018,06,18,16,36,30.40
2018,06,18,16,37,30.50
2018,06,18,16,38,30.60
2018,06,18,16,39,30.70
2018,06,18,16,40,30.80
2018,06,18,16,41,30.90
2018,06,18,16,42,30.90
2018,06,18,16,43,30.90
2018,06,18,16,44,30.90
2018,06,18,16,45,30.90
2018,06,18,16,46,30.90
2018,06,18,16,47,30.90
2018,06,18,16,48,30.90
2018,06,18,16,49,30.70
2018,06,18,16,50,30.30
2018,06,18,16,51,30.10
2018,06,18,16,52,29.90
2018,06,18,16,53,29.80
2018,06,18,16,54,29.60
2018,06,18,16,55,29.60
2018,06,18,16,56,29.50
2018,06,18,16,57,29.50
2018,06,18,16,58,29.50
2018,06,18,16,59,29.40
2018,06,18,17,00,29.30
2018,06,18,17,01,29.20
2018,06,18,17,02,29.20
2018,06,18,17,03,29.20
2018,06,18,17,04,29.30
2018,06,18,17,05,29.30
2018,06,18,17,06,29.30
2018,06,18,17,07,29.30
2018,06,18,17,08,29.30
2018,06,18,17,09,29.40
2018,06,18,17,10,29.50
2018,06,18,17,11,29.60
2018,06,18,17,12,29.70
2018,06,18,17,13,29.70
2018,06,18,17,14,29.80
2018,06,18,17,15,29.90
2018,06,18,17,16,30.00
2018,06,18,17,17,30.10
2018,06,18,17,18,30.10
2018,06,18,17,19,30.10